SKYSAT-C7

Last updated on Wed Sep 17 2025 00:02:31 GMT+0000 (Coordinated Universal Time)

1 42991U 17068E 25258.93416381 .00011682 00000+0 38797-3 0 9998 2 42991 97.4191 29.7731 0005314 32.4300 327.7267 15.31357495440333
UTC large
Height (km)
Speed (km/s)
/
Latitude / Longitude
Inclination (degrees)
Orbital Period (minutes)
Azimuth
Elevation
Range (km)
Doppler Factor

Next 0 passes for location: London (51.5072 / 0.1276)

Sorry there are no passes over London.